OpenBCM V1.13 (Linux)

Packet Radio Mailbox

DB0FHN

[JN59NK Nuernberg]

 Login: GUEST





  
I6KZR  > KEPLER   28.01.03 01:03l 1460 Lines 39193 Bytes #999 (0) @ WW
BID : 20717_IK6WID
Read: DB0FHN GUEST
Subj: Old Istantrak Keplerians #027
Path: DB0FHN<DB0ZWI<DB0HOT<OK0PBX<OK0PAD<OK0PPL<RZ6HXA<IK1ZNW<IK6PYS<I6ZLO<
      IK6WID
Sent: 030127/2243Z @:IK6WID.#AP.IMAR.ITA.EU #:20717 [MONTE URANO]  FBB7.00i
From: I6KZR@IK6WID.#AP.IMAR.ITA.EU
To  : KEPLER@WW


 Satellite: OSCAR 7
Catalog number: 07530
Epoch time:      103026.70737741
Element set:     181 
Inclination:      101.7644 deg
RA of node:        74.7059 deg
Eccentricity:    0.0012311
Arg of perigee:   122.2198 deg
Mean anomaly:     238.0068 deg
Mean motion:   12.53563977 rev/day
Decay rate:   -2.9000E-007 rev/day^2
Epoch rev:           29032
Checksum:              285

Satellite: GOES 2
Catalog number: 10061
Epoch time:      103019.51073537
Element set:     61 
Inclination:       14.1247 deg
RA of node:        13.6744 deg
Eccentricity:    0.0013638
Arg of perigee:   197.1605 deg
Mean anomaly:     162.8376 deg
Mean motion:    0.99393429 rev/day
Decay rate:    5.2000E-007 rev/day^2
Epoch rev:            3853
Checksum:              277

Satellite: GOES 3
Catalog number: 10953
Epoch time:      103026.00114746
Element set:     903 
Inclination:       13.3990 deg
RA of node:        17.4113 deg
Eccentricity:    0.0005008
Arg of perigee:   338.3266 deg
Mean anomaly:      21.6823 deg
Mean motion:    1.00278501 rev/day
Decay rate:   -9.8999E-007 rev/day^2
Epoch rev:            4326
Checksum:              275

Satellite: GOES 6
Catalog number: 14050
Epoch time:      103025.12056799
Element set:     415 
Inclination:       10.3664 deg
RA of node:        35.6716 deg
Eccentricity:    0.0003844
Arg of perigee:   344.1331 deg
Mean anomaly:      15.8878 deg
Mean motion:    1.00295192 rev/day
Decay rate:    4.8999E-007 rev/day^2
Epoch rev:           13039
Checksum:              405

Satellite: OSCAR 10
Catalog number: 14129
Epoch time:      103022.69371816
Element set:     912 
Inclination:       25.8918 deg
RA of node:       168.7550 deg
Eccentricity:    0.6038640
Arg of perigee:   321.4060 deg
Mean anomaly:       7.9531 deg
Mean motion:    2.05867100 rev/day
Decay rate:    2.2900E-006 rev/day^2
Epoch rev:           11951
Checksum:              280

Satellite: OSCAR 11 (UoSA
Catalog number: 14781
Epoch time:      103027.20201192
Element set:     54 
Inclination:       98.1141 deg
RA of node:         0.9608 deg
Eccentricity:    0.0008252
Arg of perigee:   286.3646 deg
Mean anomaly:      73.6656 deg
Mean motion:   14.77927976 rev/day
Decay rate:    1.4950E-005 rev/day^2
Epoch rev:            1293
Checksum:              303

Satellite: NOAA 10
Catalog number: 16969
Epoch time:      103026.97167224
Element set:     648 
Inclination:       98.7274 deg
RA of node:        21.1321 deg
Eccentricity:    0.0012734
Arg of perigee:   149.1985 deg
Mean anomaly:     210.9945 deg
Mean motion:   14.27054765 rev/day
Decay rate:    1.4400E-006 rev/day^2
Epoch rev:           85068
Checksum:              321

Satellite: GOES 7
Catalog number: 17561
Epoch time:      103013.52827387
Element set:     810 
Inclination:        7.5470 deg
RA of node:        55.7264 deg
Eccentricity:    0.0004064
Arg of perigee:   288.6625 deg
Mean anomaly:     149.4031 deg
Mean motion:    1.00317770 rev/day
Decay rate:    1.1600E-006 rev/day^2
Epoch rev:            4138
Checksum:              275

Satellite: COSMOS 1861
Catalog number: 18129
Epoch time:      103027.06056038
Element set:     195 
Inclination:       82.9255 deg
RA of node:       163.1983 deg
Eccentricity:    0.0010618
Arg of perigee:   294.7348 deg
Mean anomaly:      65.2701 deg
Mean motion:   13.72698544 rev/day
Decay rate:    7.0999E-007 rev/day^2
Epoch rev:           78142
Checksum:              348

Satellite: EUTELSAT 1-F4 
Catalog number: 18351
Epoch time:      103025.63835885
Element set:     30 
Inclination:        7.1440 deg
RA of node:        58.7787 deg
Eccentricity:    0.0016805
Arg of perigee:   154.8010 deg
Mean anomaly:     205.3117 deg
Mean motion:    0.98686696 rev/day
Decay rate:    4.1999E-007 rev/day^2
Epoch rev:            4244
Checksum:              322

Satellite: NOAA 11
Catalog number: 19531
Epoch time:      103026.94751928
Element set:     481 
Inclination:       98.9042 deg
RA of node:       108.4026 deg
Eccentricity:    0.0010931
Arg of perigee:   266.7022 deg
Mean anomaly:      93.2899 deg
Mean motion:   14.14527161 rev/day
Decay rate:    2.3099E-006 rev/day^2
Epoch rev:           73960
Checksum:              316

Satellite: ASTRA 1A
Catalog number: 19688
Epoch time:      103025.83844330
Element set:     563 
Inclination:        1.3364 deg
RA of node:        95.0645 deg
Eccentricity:    0.0005159
Arg of perigee:   203.5655 deg
Mean anomaly:     133.1067 deg
Mean motion:    1.00272638 rev/day
Decay rate:    3.4999E-007 rev/day^2
Epoch rev:            3195
Checksum:              300

Satellite: OSCAR 14 (UOSA
Catalog number: 20437
Epoch time:      103027.54695240
Element set:     151 
Inclination:       98.2746 deg
RA of node:        72.2083 deg
Eccentricity:    0.0009920
Arg of perigee:   269.7186 deg
Mean anomaly:      90.2866 deg
Mean motion:   14.31230518 rev/day
Decay rate:    1.4700E-006 rev/day^2
Epoch rev:           67934
Checksum:              310

Satellite: OSCAR 15 (UOSA
Catalog number: 20438
Epoch time:      103027.13078236
Element set:     766 
Inclination:       98.2515 deg
RA of node:        61.0339 deg
Eccentricity:    0.0009186
Arg of perigee:   283.4461 deg
Mean anomaly:      76.5694 deg
Mean motion:   14.30191729 rev/day
Decay rate:    8.2999E-007 rev/day^2
Epoch rev:           67895
Checksum:              354

Satellite: OSCAR 16 (PACS
Catalog number: 20439
Epoch time:      103027.21596804
Element set:     843 
Inclination:       98.3208 deg
RA of node:        83.4463 deg
Eccentricity:    0.0010201
Arg of perigee:   277.9658 deg
Mean anomaly:      82.0362 deg
Mean motion:   14.31462748 rev/day
Decay rate:    1.6400E-006 rev/day^2
Epoch rev:           67933
Checksum:              307

Satellite: OSCAR 17 (DOVE
Catalog number: 20440
Epoch time:      103026.92967982
Element set:     736 
Inclination:       98.3396 deg
RA of node:        87.0112 deg
Eccentricity:    0.0010504
Arg of perigee:   278.2631 deg
Mean anomaly:      81.7357 deg
Mean motion:   14.31740170 rev/day
Decay rate:    2.1099E-006 rev/day^2
Epoch rev:           67936
Checksum:              318

Satellite: OSCAR 18 (WEBE
Catalog number: 20441
Epoch time:      103027.19804660
Element set:     997 
Inclination:       98.3390 deg
RA of node:        86.4965 deg
Eccentricity:    0.0010843
Arg of perigee:   277.0350 deg
Mean anomaly:      82.9600 deg
Mean motion:   14.31544820 rev/day
Decay rate:    1.7300E-006 rev/day^2
Epoch rev:           67938
Checksum:              316

Satellite: OSCAR 19 (LUSA
Catalog number: 20442
Epoch time:      103026.68980809
Element set:     950 
Inclination:       98.3527 deg
RA of node:        88.9915 deg
Eccentricity:    0.0011238
Arg of perigee:   278.5893 deg
Mean anomaly:      81.4009 deg
Mean motion:   14.31707401 rev/day
Decay rate:    1.8099E-006 rev/day^2
Epoch rev:           67936
Checksum:              348

Satellite: JAS 1B (FUJI 2
Catalog number: 20480
Epoch time:      103027.48392353
Element set:     458 
Inclination:       99.0421 deg
RA of node:       354.3847 deg
Eccentricity:    0.0540845
Arg of perigee:    53.8729 deg
Mean anomaly:     311.1193 deg
Mean motion:   12.83328960 rev/day
Decay rate:    1.1000E-007 rev/day^2
Epoch rev:           60768
Checksum:              306

Satellite: HST
Catalog number: 20580
Epoch time:      103027.04687500
Element set:     309 
Inclination:       28.4658 deg
RA of node:       184.3702 deg
Eccentricity:    0.0004000
Arg of perigee:    35.2362 deg
Mean anomaly:     122.5508 deg
Mean motion:   14.97720040 rev/day
Decay rate:    1.1150E-005 rev/day^2
Epoch rev:           49925
Checksum:              260

Satellite: EUTELSAT 2-F1
Catalog number: 20777
Epoch time:      103022.91733966
Element set:     20 
Inclination:        3.4375 deg
RA of node:        84.7981 deg
Eccentricity:    0.0000583
Arg of perigee:   212.5156 deg
Mean anomaly:     230.8178 deg
Mean motion:    1.00271266 rev/day
Decay rate:   -9.5999E-007 rev/day^2
Epoch rev:            2583
Checksum:              424

Satellite: FENGYUN 1B
Catalog number: 20788
Epoch time:      103027.19838692
Element set:     867 
Inclination:       99.0253 deg
RA of node:         9.6021 deg
Eccentricity:    0.0015167
Arg of perigee:   293.8192 deg
Mean anomaly:      66.1382 deg
Mean motion:   14.02138433 rev/day
Decay rate:   -1.1900E-006 rev/day^2
Epoch rev:           63440
Checksum:              303

Satellite: EUTELSAT 2-F2
Catalog number: 21056
Epoch time:      103025.82453705
Element set:     612 
Inclination:        2.6710 deg
RA of node:        88.1797 deg
Eccentricity:    0.0004556
Arg of perigee:   175.8342 deg
Mean anomaly:     205.9804 deg
Mean motion:    1.00268521 rev/day
Decay rate:    1.2100E-006 rev/day^2
Epoch rev:            3164
Checksum:              264

Satellite: INFORMATOR 1
Catalog number: 21087
Epoch time:      103026.92646301
Element set:     621 
Inclination:       82.9445 deg
RA of node:       334.1726 deg
Eccentricity:    0.0034441
Arg of perigee:   316.2109 deg
Mean anomaly:      43.6316 deg
Mean motion:   13.74924018 rev/day
Decay rate:    8.2000E-007 rev/day^2
Epoch rev:           60177
Checksum:              274

Satellite: COSMOS 2123
Catalog number: 21089
Epoch time:      103026.97277129
Element set:     503 
Inclination:       82.9213 deg
RA of node:       198.1376 deg
Eccentricity:    0.0029749
Arg of perigee:   352.3209 deg
Mean anomaly:       7.7487 deg
Mean motion:   13.74401887 rev/day
Decay rate:    7.5000E-007 rev/day^2
Epoch rev:           60068
Checksum:              329

